Weather History for KP58 - October, 2012

Change the Weather History Date:

Sunday, October 28, 2012

  Actual Average Record
Temperature  
Mean Temperature 46 °F -  
Max Temperature 46 °F 53 °F 72 °F (2000)
Min Temperature 45 °F 40 °F 30 °F (2011)
Degree Days  
Heating Degree Days 20    
Moisture  
Dew Point 33 °F    
Average Humidity 60    
Maximum Humidity 74    
Minimum Humidity 54    
Precipitation  
Precipitation 0.01 in - - ()
Sea Level Pressure  
Sea Level Pressure 30.20 in    
Wind  
Wind Speed 17 mph (NNE)    
Max Wind Speed 28 mph    
Max Gust Speed 38 mph    
Averages and records for this station are not official NWS values.
T = Trace of Precipitation, MM = Missing Value Source: NWS Daily Summary

Daily Weather History Graph

Daily Weather History Graph

Search for Another Location

Airport or City:

Trip Planner

Search our weather history database for the weather conditions in past years. The results will help you decide how hot, cold, wet, or windy it might be!

Date:

Astronomy

Oct. 28, 2012 Rise Set
Actual Time 8:03 AM EDT 6:26 PM EDT
Civil Twilight 7:33 AM EDT 6:55 PM EDT
Nautical Twilight 6:59 AM EDT 7:29 PM EDT
Astronomical Twilight 6:25 AM EDT 8:03 PM EDT
Moon 5:43 PM EDT (10/28) 6:54 AM EDT (10/28)
Length of Visible Light 11h 22m
Length of Day
10h 23m
Waxing Gibbous, 99% of the Moon is Illuminated
Oct 28
Waxing Gibbous
Oct 29
Full
Nov 6
Last Quarter
Nov 13
New
Nov 20
First Quarter

Hourly Weather History & Observations

Time (EDT) Temp. Windchill Dew Point Humidity Pressure Visibility Wind Dir Wind Speed Gust Speed Precip Events Conditions
12:51 AM 46.0 °F 40.2 °F 32.0 °F 58% 30.23 in - North 12.7 mph 18.4 mph N/A   Unknown
1:51 AM 46.0 °F 42.5 °F 30.9 °F 56% 30.22 in - North 6.9 mph 19.6 mph N/A   Unknown
2:51 AM 46.0 °F 43.1 °F 37.0 °F 71% 30.22 in - NNW 5.8 mph - N/A   Unknown
3:51 AM 46.9 °F - 34.0 °F 61% 30.21 in - NNE 16.1 mph 23.0 mph N/A   Unknown
4:51 AM 46.9 °F - 33.1 °F 59% 30.22 in - North 16.1 mph 21.9 mph N/A   Unknown
5:51 AM 45.0 °F 37.6 °F 37.0 °F 74% 30.23 in - NNE 17.3 mph 23.0 mph N/A   Unknown
6:51 AM 46.0 °F 38.3 °F 36.0 °F 68% 30.21 in - NNE 20.7 mph 24.2 mph 0.01 in   Unknown
7:51 AM 46.0 °F 37.2 °F 34.0 °F 63% 30.21 in - NNE 26.5 mph 32.2 mph N/A   Unknown
8:51 AM 46.0 °F 37.2 °F 34.0 °F 63% 30.24 in - NNE 26.5 mph - N/A   Unknown
9:51 AM 46.0 °F 37.6 °F 32.0 °F 58% 30.22 in - NNE 24.2 mph 34.5 mph N/A   Unknown
10:51 AM 46.0 °F 37.8 °F 32.0 °F 58% 30.25 in - NNE 23.0 mph 31.1 mph N/A   Unknown
11:51 AM 46.9 °F - 30.9 °F 54% 30.25 in - NNE 23.0 mph 32.2 mph N/A   Unknown
12:51 PM 46.0 °F 37.4 °F 32.0 °F 58% 30.22 in - NNE 25.3 mph 32.2 mph N/A   Unknown
1:51 PM 45.0 °F 36.6 °F 32.0 °F 60% 30.21 in - NNE 21.9 mph 29.9 mph N/A   Unknown
2:51 PM 45.0 °F 36.6 °F 32.0 °F 60% 30.19 in - North 21.9 mph 28.8 mph N/A   Unknown
3:51 PM 45.0 °F 37.9 °F 30.9 °F 58% 30.20 in - North 16.1 mph 28.8 mph N/A   Unknown
4:51 PM 45.0 °F 36.9 °F 32.0 °F 60% 30.19 in - North 20.7 mph 34.5 mph N/A   Unknown
5:51 PM 45.0 °F 36.6 °F 32.0 °F 60% 30.19 in - North 21.9 mph 32.2 mph N/A   Unknown
6:51 PM 45.0 °F 36.9 °F 30.9 °F 58% 30.18 in - North 20.7 mph 32.2 mph N/A   Unknown
7:51 PM 45.0 °F 36.9 °F 32.0 °F 60% 30.18 in - North 20.7 mph 32.2 mph N/A   Unknown
8:51 PM 45.0 °F 36.6 °F 30.9 °F 58% 30.17 in - North 21.9 mph 31.1 mph N/A   Unknown
9:51 PM 45.0 °F 37.1 °F 30.9 °F 58% 30.17 in - North 19.6 mph 31.1 mph N/A   Unknown
10:51 PM 45.0 °F 35.6 °F 30.9 °F 58% 30.15 in - NNE 27.6 mph 35.7 mph N/A   Unknown
11:51 PM 45.0 °F 35.6 °F 32.0 °F 60% 30.14 in - NNE 27.6 mph 38.0 mph N/A   Unknown